Time,TemperatureF,DewpointF,PressureIn,WindDirection,WindDirectionDegrees,WindSpeedMPH,WindSpeedGustMPH,Humidity,HourlyPrecipIn,Conditions,Clouds,dailyrainin,SolarRadiationWatts/m^2,SoftwareType,DateUTC
2019-11-14 00:00:30,42.1,40.5,29.45,SE,128,6.9,15,94,0,,,0,0.00,meteobridge,2019-11-13 23:00:30,
2019-11-14 00:05:33,42.1,40.5,29.45,South,172,8.1,9,94,0,,,0,0.00,meteobridge,2019-11-13 23:05:33,
2019-11-14 00:10:53,41.9,40.3,29.44,SE,138,8.1,10,94,0,,,0,0.00,meteobridge,2019-11-13 23:10:53,
2019-11-14 00:15:05,41.9,40.3,29.44,SSE,157,4.9,8,94,0,,,0,0.00,meteobridge,2019-11-13 23:15:05,
2019-11-14 00:20:17,41.9,40.3,29.44,SSE,161,6.9,11,94,0,,,0,0.00,meteobridge,2019-11-13 23:20:17,
2019-11-14 00:25:35,41.9,40.3,29.44,SSE,162,4,9,94,0,,,0,0.00,meteobridge,2019-11-13 23:25:35,
2019-11-14 00:30:47,41.7,40.1,29.44,SSE,157,2.9,10,94,0,,,0,0.00,meteobridge,2019-11-13 23:30:47,
2019-11-14 00:36:06,41.7,40.1,29.44,South,169,6.9,9,94,0,,,0,0.00,meteobridge,2019-11-13 23:36:06,
2019-11-14 00:40:19,41.5,39.9,29.43,SSE,150,4.9,9,94,0,,,0,0.00,meteobridge,2019-11-13 23:40:19,
2019-11-14 00:45:32,41.5,39.9,29.43,SSE,147,8.9,11,94,0,,,0,0.00,meteobridge,2019-11-13 23:45:32,
2019-11-14 00:50:39,41.5,39.9,29.43,SE,144,8.9,10,94,0,,,0,0.00,meteobridge,2019-11-13 23:50:39,
2019-11-14 00:55:45,41.5,39.9,29.43,SSE,159,6,12,94,0,,,0,0.00,meteobridge,2019-11-13 23:55:45,
2019-11-14 01:00:57,41.5,39.9,29.43,ESE,123,8.9,12,94,0,,,0,0.00,meteobridge,2019-11-14 00:00:57,
2019-11-14 01:05:11,41.5,39.9,29.43,SSE,152,8.9,12,94,0,,,0,0.00,meteobridge,2019-11-14 00:05:11,
2019-11-14 01:10:29,41.5,39.9,29.43,SSE,168,10.1,13,94,0,,,0,0.00,meteobridge,2019-11-14 00:10:29,
2019-11-14 01:15:36,41.7,40.1,29.43,SE,146,12.1,13,94,0,,,0,0.00,meteobridge,2019-11-14 00:15:36,
2019-11-14 01:20:39,41.7,40.1,29.43,ESE,107,8.9,16,94,0,,,0,0.00,meteobridge,2019-11-14 00:20:39,
2019-11-14 01:25:55,41.9,40.1,29.43,SSE,153,8.1,11,93,0,,,0,0.00,meteobridge,2019-11-14 00:25:55,
2019-11-14 01:30:09,41.9,40.1,29.43,SSE,157,8.9,14,93,0,,,0,0.00,meteobridge,2019-11-14 00:30:09,
2019-11-14 01:35:21,41.9,40.1,29.43,SSE,157,6.9,15,93,0,,,0,0.00,meteobridge,2019-11-14 00:35:21,
2019-11-14 01:40:33,42.1,40.3,29.43,SE,138,8.1,14,93,0,,,0,0.00,meteobridge,2019-11-14 00:40:33,
2019-11-14 01:45:37,42.1,40.3,29.42,SSE,147,16.1,16,93,0,,,0,0.00,meteobridge,2019-11-14 00:45:37,
2019-11-14 01:50:47,42.1,40.3,29.42,SE,145,6,13,93,0,,,0,0.00,meteobridge,2019-11-14 00:50:47,
2019-11-14 01:55:01,41.9,40.1,29.42,SSE,153,8.1,10,93,0,,,0,0.00,meteobridge,2019-11-14 00:55:01,
2019-11-14 02:00:19,41.9,40.1,29.42,East,89,12.1,14,93,0,,,0,0.00,meteobridge,2019-11-14 01:00:19,
2019-11-14 02:05:31,41.7,39.9,29.42,SSE,155,6,11,93,0,,,0,0.00,meteobridge,2019-11-14 01:05:31,
2019-11-14 02:10:34,41.7,39.9,29.41,South,180,6.9,13,93,0,,,0,0.00,meteobridge,2019-11-14 01:10:34,
2019-11-14 02:15:45,41.5,39.7,29.41,SSE,150,10.1,14,93,0,,,0,0.00,meteobridge,2019-11-14 01:15:45,
2019-11-14 02:20:59,41.5,39.7,29.41,SSE,155,8.9,10,93,0,,,0,0.00,meteobridge,2019-11-14 01:20:59,
2019-11-14 02:25:11,41.5,39.4,29.41,SE,140,4,11,92,0,,,0,0.00,meteobridge,2019-11-14 01:25:11,
2019-11-14 02:30:29,41.5,39.7,29.41,SE,126,8.9,13,93,0,,,0,0.00,meteobridge,2019-11-14 01:30:29,
2019-11-14 02:35:31,41.5,39.7,29.41,SE,138,4,14,93,0,,,0,0.00,meteobridge,2019-11-14 01:35:31,
2019-11-14 02:40:38,41.5,39.7,29.41,SSE,150,6,12,93,0,,,0,0.00,meteobridge,2019-11-14 01:40:38,
2019-11-14 02:45:55,41.5,39.4,29.40,South,190,8.9,13,92,0,,,0,0.00,meteobridge,2019-11-14 01:45:55,
2019-11-14 02:50:07,41.5,39.4,29.40,SE,139,4.9,13,92,0,,,0,0.00,meteobridge,2019-11-14 01:50:07,
2019-11-14 02:55:19,41.4,39.2,29.40,SE,139,11,13,92,0,,,0,0.00,meteobridge,2019-11-14 01:55:19,
2019-11-14 03:00:39,41.4,39.2,29.39,SE,136,10.1,14,92,0,,,0,0.00,meteobridge,2019-11-14 02:00:39,
2019-11-14 03:05:39,41.4,39.2,29.39,SE,143,8.9,15,92,0,,,0,0.00,meteobridge,2019-11-14 02:05:39,
2019-11-14 03:10:42,41.4,39.2,29.40,South,175,6.9,14,92,0,,,0,0.00,meteobridge,2019-11-14 02:10:42,
2019-11-14 03:15:45,41.4,39.2,29.39,SSE,161,8.1,11,92,0,,,0,0.00,meteobridge,2019-11-14 02:15:45,
2019-11-14 03:21:01,41.4,39.2,29.39,ESE,120,8.9,12,92,0,,,0,0.00,meteobridge,2019-11-14 02:21:01,
2019-11-14 03:25:15,41.4,39.2,29.39,SE,140,6.9,15,92,0,,,0,0.00,meteobridge,2019-11-14 02:25:15,
2019-11-14 03:30:28,41.4,39.2,29.39,SE,134,8.9,14,92,0,,,0,0.00,meteobridge,2019-11-14 02:30:28,
2019-11-14 03:35:36,41.4,39.2,29.39,SSE,148,11,13,92,0,,,0,0.00,meteobridge,2019-11-14 02:35:36,
2019-11-14 03:40:38,41.4,39.2,29.39,SSE,152,11,12,92,0,,,0,0.00,meteobridge,2019-11-14 02:40:38,
2019-11-14 03:45:42,41.4,39.2,29.39,SE,135,11,14,92,0,,,0,0.00,meteobridge,2019-11-14 02:45:42,
2019-11-14 03:50:42,41.2,39,29.38,SE,137,6.9,12,92,0,,,0,0.00,meteobridge,2019-11-14 02:50:42,
2019-11-14 03:55:46,41.4,39.2,29.38,SSE,156,6,15,92,0,,,0,0.00,meteobridge,2019-11-14 02:55:46,
2019-11-14 04:00:50,41.4,39.2,29.38,ESE,109,2.9,15,92,0,,,0,0.00,meteobridge,2019-11-14 03:00:50,
2019-11-14 04:05:50,41.4,39.2,29.38,ESE,117,12.1,15,92,0,,,0,0.00,meteobridge,2019-11-14 03:05:50,
2019-11-14 04:10:54,41.4,39,29.38,SSE,151,11,13,91,0,,,0,0.00,meteobridge,2019-11-14 03:10:54,
2019-11-14 04:15:58,41.4,39.2,29.38,SSE,150,8.9,16,92,0,,,0,0.00,meteobridge,2019-11-14 03:15:58,
2019-11-14 04:20:58,41.4,39,29.37,SE,146,8.1,13,91,0,,,0,0.00,meteobridge,2019-11-14 03:20:58,
2019-11-14 04:25:02,41.4,39.2,29.37,SE,127,10.1,14,92,0,,,0,0.00,meteobridge,2019-11-14 03:25:02,
2019-11-14 04:30:02,41.5,39.2,29.37,SE,146,6,12,91,0,,,0,0.00,meteobridge,2019-11-14 03:30:02,
2019-11-14 04:35:06,41.5,39.2,29.37,SE,128,10.1,12,91,0,,,0,0.00,meteobridge,2019-11-14 03:35:06,
2019-11-14 04:40:10,41.5,39.2,29.37,South,179,4.9,13,91,0,,,0,0.00,meteobridge,2019-11-14 03:40:10,
2019-11-14 04:45:10,41.7,39.2,29.37,ESE,107,8.9,14,91,0,,,0,0.00,meteobridge,2019-11-14 03:45:10,
2019-11-14 04:50:14,41.7,39.2,29.37,SE,126,8.9,14,91,0,,,0,0.00,meteobridge,2019-11-14 03:50:14,
2019-11-14 04:55:14,41.7,39.2,29.36,SE,136,11,12,91,0,,,0,0.00,meteobridge,2019-11-14 03:55:14,
2019-11-14 05:00:18,41.7,39.2,29.37,SE,126,11,13,91,0,,,0,0.00,meteobridge,2019-11-14 04:00:18,
2019-11-14 05:05:22,41.9,39.4,29.36,ESE,113,13,16,91,0,,,0,0.00,meteobridge,2019-11-14 04:05:22,
2019-11-14 05:10:22,42.1,39.6,29.36,SSE,153,10.1,16,91,0,,,0,0.00,meteobridge,2019-11-14 04:10:22,
2019-11-14 05:15:26,42.1,39.6,29.37,ESE,105,11,13,91,0,,,0,0.00,meteobridge,2019-11-14 04:15:26,
2019-11-14 05:20:30,42.1,39.4,29.37,SE,127,8.1,14,90,0,,,0,0.00,meteobridge,2019-11-14 04:20:30,
2019-11-14 05:25:30,42.1,39.4,29.36,ESE,114,6.9,14,90,0,,,0,0.00,meteobridge,2019-11-14 04:25:30,
2019-11-14 05:30:34,42.1,39.4,29.37,SE,138,6.9,13,90,0,,,0,0.00,meteobridge,2019-11-14 04:30:34,
2019-11-14 05:35:34,42.1,39.4,29.37,SE,135,8.1,15,90,0,,,0,0.00,meteobridge,2019-11-14 04:35:34,
2019-11-14 05:40:38,42.1,39.4,29.37,SSE,159,10.1,16,90,0,,,0,0.00,meteobridge,2019-11-14 04:40:38,
2019-11-14 05:45:42,42.1,39.4,29.37,SSE,151,8.1,15,90,0,,,0,0.00,meteobridge,2019-11-14 04:45:42,
2019-11-14 05:50:42,42.3,39.6,29.37,SSE,149,12.1,15,90,0,,,0,0.00,meteobridge,2019-11-14 04:50:42,
2019-11-14 05:55:46,42.3,39.6,29.37,SE,126,6.9,14,90,0,,,0,0.00,meteobridge,2019-11-14 04:55:46,
2019-11-14 06:00:50,42.3,39.6,29.38,SE,142,6,11,90,0,,,0,0.00,meteobridge,2019-11-14 05:00:50,
2019-11-14 06:05:50,42.3,39.6,29.37,SE,132,8.9,15,90,0,,,0,0.00,meteobridge,2019-11-14 05:05:50,
2019-11-14 06:10:54,42.3,39.6,29.38,South,174,11,14,90,0,,,0,0.00,meteobridge,2019-11-14 05:10:54,
2019-11-14 06:15:54,42.3,39.6,29.38,SE,136,10.1,14,90,0,,,0,0.00,meteobridge,2019-11-14 05:15:54,
2019-11-14 06:20:58,42.3,39.6,29.38,SE,128,14.1,14,90,0,,,0,0.00,meteobridge,2019-11-14 05:20:58,
2019-11-14 06:25:02,42.4,39.7,29.38,SSE,162,8.1,14,90,0,,,0,0.00,meteobridge,2019-11-14 05:25:02,
2019-11-14 06:30:02,42.4,39.7,29.38,SE,134,11,14,90,0,,,0,0.00,meteobridge,2019-11-14 05:30:02,
2019-11-14 06:35:06,42.4,39.7,29.38,SE,132,11,15,90,0,,,0,0.00,meteobridge,2019-11-14 05:35:06,
2019-11-14 06:40:06,42.3,39.6,29.38,SSE,165,13,13,90,0,,,0,0.00,meteobridge,2019-11-14 05:40:06,
2019-11-14 06:45:08,42.4,39.7,29.38,ESE,121,6.9,14,90,0,,,0,0.00,meteobridge,2019-11-14 05:45:08,
2019-11-14 06:50:12,42.4,39.7,29.38,SE,139,8.1,14,90,0,,,0,0.00,meteobridge,2019-11-14 05:50:12,
2019-11-14 06:55:12,42.3,39.6,29.39,SE,141,8.1,12,90,0,,,0,0.00,meteobridge,2019-11-14 05:55:12,
2019-11-14 07:00:14,42.4,39.7,29.39,SE,129,8.9,11,90,0,,,0,0.00,meteobridge,2019-11-14 06:00:14,
2019-11-14 07:05:18,42.4,39.7,29.39,ESE,123,8.1,11,90,0,,,0,0.00,meteobridge,2019-11-14 06:05:18,
2019-11-14 07:10:18,42.3,39.6,29.39,SSE,156,6.9,12,90,0,,,0,0.00,meteobridge,2019-11-14 06:10:18,
2019-11-14 07:15:22,42.4,39.7,29.39,SE,134,6.9,11,90,0,,,0,0.00,meteobridge,2019-11-14 06:15:22,
2019-11-14 07:20:22,42.3,39.6,29.40,ESE,115,8.1,15,90,0,,,0,0.00,meteobridge,2019-11-14 06:20:22,
2019-11-14 07:25:26,42.4,39.7,29.39,South,178,6.9,14,90,0,,,0.01,0.00,meteobridge,2019-11-14 06:25:26,
2019-11-14 07:30:32,42.4,39.9,29.40,SSE,160,10.1,14,91,0.01,,,0.01,0.00,meteobridge,2019-11-14 06:30:32,
2019-11-14 07:35:38,42.3,39.7,29.39,SSE,161,8.1,12,91,0.01,,,0.01,0.00,meteobridge,2019-11-14 06:35:38,
2019-11-14 07:40:44,42.3,39.7,29.39,SE,129,6.9,11,91,0.01,,,0.01,0.00,meteobridge,2019-11-14 06:40:44,
2019-11-14 07:45:50,42.4,39.9,29.40,South,187,4.9,14,91,0.01,,,0.01,0.00,meteobridge,2019-11-14 06:45:50,
2019-11-14 07:50:56,42.3,39.6,29.40,SSE,153,8.1,11,90,0.01,,,0.01,0.00,meteobridge,2019-11-14 06:50:56,
2019-11-14 07:55:00,42.4,39.7,29.41,ESE,117,6.9,14,90,0.01,,,0.01,0.00,meteobridge,2019-11-14 06:55:00,
2019-11-14 08:00:04,42.4,39.7,29.41,SSE,148,11,16,90,0.01,,,0.01,0.00,meteobridge,2019-11-14 07:00:04,
2019-11-14 08:05:06,42.4,39.7,29.41,South,178,8.9,12,90,0.01,,,0.01,0.00,meteobridge,2019-11-14 07:05:06,
2019-11-14 08:10:12,42.6,39.6,29.41,SSE,157,11,17,89,0.01,,,0.01,0.00,meteobridge,2019-11-14 07:10:12,
2019-11-14 08:15:16,42.6,39.6,29.42,SE,126,13,14,89,0.01,,,0.01,0.00,meteobridge,2019-11-14 07:15:16,
2019-11-14 08:20:20,42.6,39.6,29.42,SSE,160,13,16,89,0.01,,,0.01,0.00,meteobridge,2019-11-14 07:20:20,
2019-11-14 08:25:26,42.6,39.6,29.42,SSE,148,8.1,14,89,0.01,,,0.01,0.00,meteobridge,2019-11-14 07:25:26,
2019-11-14 08:30:30,42.6,39.6,29.42,SSE,157,8.1,16,89,0,,,0.01,0.00,meteobridge,2019-11-14 07:30:30,
2019-11-14 08:35:30,42.6,39.6,29.42,SSE,151,12.1,17,89,0.01,,,0.02,5.00,meteobridge,2019-11-14 07:35:30,
2019-11-14 08:40:30,42.4,39.4,29.42,South,184,6,18,89,0.01,,,0.02,7.00,meteobridge,2019-11-14 07:40:30,
2019-11-14 08:45:34,42.4,39.4,29.43,South,170,10.1,15,89,0.01,,,0.02,11.00,meteobridge,2019-11-14 07:45:34,
2019-11-14 08:50:52,42.3,39.6,29.43,SSE,148,12.1,20,90,0.01,,,0.02,7.00,meteobridge,2019-11-14 07:50:52,
2019-11-14 08:55:52,42.3,39.6,29.43,SE,130,8.1,15,90,0.01,,,0.02,5.00,meteobridge,2019-11-14 07:55:52,
2019-11-14 09:00:00,42.3,39.6,29.44,SSE,150,12.1,17,90,0.01,,,0.02,9.00,meteobridge,2019-11-14 08:00:00,
2019-11-14 09:05:06,42.1,39.4,29.44,SSE,163,11,18,90,0.01,,,0.02,7.00,meteobridge,2019-11-14 08:05:06,
2019-11-14 09:10:08,42.1,39.4,29.44,ESE,123,11,16,90,0.01,,,0.02,9.00,meteobridge,2019-11-14 08:10:08,
2019-11-14 09:15:26,42.1,39.4,29.44,SE,146,8.9,21,90,0.01,,,0.02,11.00,meteobridge,2019-11-14 08:15:26,
2019-11-14 09:20:32,42.1,39.4,29.44,South,169,12.1,15,90,0.01,,,0.02,12.00,meteobridge,2019-11-14 08:20:32,
2019-11-14 09:25:34,42.1,39.4,29.44,SE,138,12.1,20,90,0.01,,,0.02,14.00,meteobridge,2019-11-14 08:25:34,
2019-11-14 09:30:52,42.1,39.4,29.45,SSE,148,11,13,90,0.01,,,0.02,12.00,meteobridge,2019-11-14 08:30:52,
2019-11-14 09:35:04,42.1,39.6,29.45,ESE,106,8.9,15,91,0.01,,,0.02,12.00,meteobridge,2019-11-14 08:35:04,
2019-11-14 09:40:16,42.1,39.6,29.45,SE,138,8.1,13,91,0.01,,,0.02,14.00,meteobridge,2019-11-14 08:40:16,
2019-11-14 09:45:22,42.1,39.6,29.45,South,170,12.1,13,91,0.01,,,0.02,16.00,meteobridge,2019-11-14 08:45:22,
2019-11-14 09:50:32,42.1,39.6,29.45,South,174,6,16,91,0.01,,,0.02,19.00,meteobridge,2019-11-14 08:50:32,
2019-11-14 09:55:44,42.1,39.6,29.45,SSE,151,13,15,91,0.01,,,0.02,25.00,meteobridge,2019-11-14 08:55:44,
2019-11-14 10:00:44,41.9,39.7,29.46,South,174,8.9,16,92,0.01,,,0.02,26.00,meteobridge,2019-11-14 09:00:44,
2019-11-14 10:05:58,41.7,39.6,29.46,South,188,2,14,92,0.01,,,0.02,33.00,meteobridge,2019-11-14 09:05:58,
2019-11-14 10:10:58,41.7,39.6,29.46,South,173,6.9,19,92,0.02,,,0.03,40.00,meteobridge,2019-11-14 09:10:58,
2019-11-14 10:15:06,41.7,39.6,29.46,SE,126,6.9,12,92,0.02,,,0.03,28.00,meteobridge,2019-11-14 09:15:06,
2019-11-14 10:20:18,41.7,39.6,29.46,SSE,150,6,11,92,0.02,,,0.03,39.00,meteobridge,2019-11-14 09:20:18,
2019-11-14 10:25:24,41.7,39.6,29.47,SSW,198,6,12,92,0.02,,,0.03,32.00,meteobridge,2019-11-14 09:25:24,
2019-11-14 10:30:32,41.5,39.4,29.47,South,169,11,20,92,0.02,,,0.04,54.00,meteobridge,2019-11-14 09:30:32,
2019-11-14 10:35:44,41.4,39.2,29.47,SSE,152,14.1,15,92,0.02,,,0.04,79.00,meteobridge,2019-11-14 09:35:44,
2019-11-14 10:41:02,41.5,39.4,29.47,SE,139,4,18,92,0.02,,,0.04,65.00,meteobridge,2019-11-14 09:41:02,
2019-11-14 10:45:14,41.5,39.4,29.47,SSE,147,4.9,13,92,0.02,,,0.04,53.00,meteobridge,2019-11-14 09:45:14,
2019-11-14 10:50:26,41.7,39.6,29.47,SE,142,8.1,13,92,0.02,,,0.04,60.00,meteobridge,2019-11-14 09:50:26,
2019-11-14 10:55:44,41.5,39.4,29.48,SSE,153,8.1,17,92,0.02,,,0.04,47.00,meteobridge,2019-11-14 09:55:44,
2019-11-14 11:00:56,41.5,39.4,29.48,SSE,153,12.1,18,92,0.02,,,0.04,88.00,meteobridge,2019-11-14 10:00:56,
2019-11-14 11:05:02,41.5,39.4,29.48,East,88,6.9,16,92,0.02,,,0.04,97.00,meteobridge,2019-11-14 10:05:02,
2019-11-14 11:10:04,41.7,39.6,29.48,SW,217,16.1,17,92,0.01,,,0.04,118.00,meteobridge,2019-11-14 10:10:04,
2019-11-14 11:15:22,42.1,39.9,29.49,SSE,150,10.1,10,92,0.01,,,0.04,104.00,meteobridge,2019-11-14 10:15:22,
2019-11-14 11:20:34,42.1,39.6,29.49,South,187,4,16,91,0.01,,,0.04,111.00,meteobridge,2019-11-14 10:20:34,
2019-11-14 11:25:52,42.3,39.7,29.49,SE,140,6.9,13,91,0.01,,,0.04,163.00,meteobridge,2019-11-14 10:25:52,
2019-11-14 11:30:04,42.4,40.3,29.49,SSE,163,4,13,92,0,,,0.04,271.00,meteobridge,2019-11-14 10:30:04,
2019-11-14 11:35:16,42.8,40.6,29.49,SSW,192,4.9,12,92,0,,,0.04,167.00,meteobridge,2019-11-14 10:35:16,
2019-11-14 11:40:34,43,40.5,29.49,South,177,8.9,10,91,0,,,0.04,193.00,meteobridge,2019-11-14 10:40:34,
2019-11-14 11:45:46,43,40.3,29.49,South,190,8.9,11,90,0,,,0.04,132.00,meteobridge,2019-11-14 10:45:46,
2019-11-14 11:51:04,43,40.3,29.49,SE,146,8.1,12,90,0,,,0.04,193.00,meteobridge,2019-11-14 10:51:04,
2019-11-14 11:55:16,43.3,40.6,29.49,South,176,2.9,14,90,0,,,0.04,47.00,meteobridge,2019-11-14 10:55:16,
2019-11-14 12:00:28,43.2,40.5,29.49,SSW,194,6.9,11,90,0,,,0.04,109.00,meteobridge,2019-11-14 11:00:28,
2019-11-14 12:05:46,43.2,40.5,29.50,SW,225,4.9,11,90,0,,,0.04,137.00,meteobridge,2019-11-14 11:05:46,
2019-11-14 12:10:58,43.2,40.5,29.50,SSE,147,4.9,14,90,0,,,0.04,146.00,meteobridge,2019-11-14 11:10:58,
2019-11-14 12:15:10,43.3,40.6,29.50,South,180,6,13,90,0,,,0.04,153.00,meteobridge,2019-11-14 11:15:10,
2019-11-14 12:20:28,43.3,40.6,29.50,SE,138,8.1,11,90,0,,,0.04,151.00,meteobridge,2019-11-14 11:20:28,
2019-11-14 12:25:40,43.5,40.5,29.49,SSE,151,2.9,11,89,0,,,0.04,149.00,meteobridge,2019-11-14 11:25:40,
2019-11-14 12:30:58,43.5,40.8,29.50,SSE,168,6.9,13,90,0,,,0.04,155.00,meteobridge,2019-11-14 11:30:58,
2019-11-14 12:35:10,43.7,40.6,29.50,SE,136,4.9,12,89,0,,,0.04,162.00,meteobridge,2019-11-14 11:35:10,
2019-11-14 12:40:22,43.9,40.8,29.50,SE,140,4.9,14,89,0,,,0.04,116.00,meteobridge,2019-11-14 11:40:22,
2019-11-14 12:45:22,43.9,40.8,29.49,SSE,157,8.9,13,89,0,,,0.04,160.00,meteobridge,2019-11-14 11:45:22,
2019-11-14 12:50:36,43.9,40.8,29.50,SSE,163,6.9,13,89,0,,,0.04,158.00,meteobridge,2019-11-14 11:50:36,
2019-11-14 12:55:48,43.9,40.6,29.51,SSW,203,10.1,10,88,0,,,0.04,132.00,meteobridge,2019-11-14 11:55:48,
2019-11-14 13:00:00,43.9,40.6,29.50,SSE,159,10.1,17,88,0,,,0.04,111.00,meteobridge,2019-11-14 12:00:00,
2019-11-14 13:05:18,43.9,40.6,29.51,SSE,157,2.9,14,88,0,,,0.04,158.00,meteobridge,2019-11-14 12:05:18,
2019-11-14 13:10:18,43.9,40.8,29.51,South,174,8.9,11,89,0,,,0.04,156.00,meteobridge,2019-11-14 12:10:18,
2019-11-14 13:15:26,44.1,41,29.51,SSE,164,6.9,12,89,0,,,0.04,202.00,meteobridge,2019-11-14 12:15:26,
2019-11-14 13:20:44,44.2,41,29.51,SSE,157,11,11,88,0,,,0.04,111.00,meteobridge,2019-11-14 12:20:44,
2019-11-14 13:25:56,44.2,41,29.51,SSW,196,4.9,11,88,0,,,0.04,202.00,meteobridge,2019-11-14 12:25:56,
2019-11-14 13:30:08,44.2,41.2,29.50,SSE,158,2,9,89,0,,,0.04,206.00,meteobridge,2019-11-14 12:30:08,
2019-11-14 13:35:20,44.4,41.2,29.50,SSW,211,6.9,10,88,0,,,0.04,149.00,meteobridge,2019-11-14 12:35:20,
2019-11-14 13:40:22,44.4,41.2,29.51,SE,144,6,12,88,0,,,0.04,111.00,meteobridge,2019-11-14 12:40:22,
2019-11-14 13:45:34,44.4,40.8,29.51,SE,125,8.1,11,87,0,,,0.04,151.00,meteobridge,2019-11-14 12:45:34,
2019-11-14 13:50:52,44.6,41.2,29.50,SE,145,8.1,11,88,0,,,0.04,186.00,meteobridge,2019-11-14 12:50:52,
2019-11-14 13:55:04,44.8,41.4,29.50,ENE,76,2,10,88,0,,,0.04,183.00,meteobridge,2019-11-14 12:55:04,
2019-11-14 14:00:16,44.8,41.2,29.50,SE,132,4,11,87,0,,,0.04,139.00,meteobridge,2019-11-14 13:00:16,
2019-11-14 14:05:24,45,41.4,29.50,SSE,161,4.9,7,87,0,,,0.04,114.00,meteobridge,2019-11-14 13:05:24,
2019-11-14 14:10:30,44.8,41.2,29.50,SE,129,4.9,9,87,0,,,0.04,174.00,meteobridge,2019-11-14 13:10:30,
2019-11-14 14:15:42,45,41.4,29.49,SE,132,8.9,11,87,0,,,0.04,102.00,meteobridge,2019-11-14 13:15:42,
2019-11-14 14:21:00,44.8,40.8,29.50,ESE,120,4,10,86,0,,,0.04,91.00,meteobridge,2019-11-14 13:21:00,
2019-11-14 14:25:12,44.8,41.2,29.50,SE,146,4.9,11,87,0,,,0.04,151.00,meteobridge,2019-11-14 13:25:12,
2019-11-14 14:30:24,45,41.4,29.51,SSE,168,6.9,12,87,0,,,0.04,192.00,meteobridge,2019-11-14 13:30:24,
2019-11-14 14:35:42,45.3,41.4,29.52,SSE,148,10.1,11,86,0,,,0.04,223.00,meteobridge,2019-11-14 13:35:42,
2019-11-14 14:40:54,45.7,41.4,29.52,SSE,165,13,13,85,0,,,0.04,367.00,meteobridge,2019-11-14 13:40:54,
2019-11-14 14:45:06,45.9,41.4,29.52,SSE,161,8.1,9,84,0,,,0.04,121.00,meteobridge,2019-11-14 13:45:06,
2019-11-14 14:50:24,45.9,41.4,29.52,SE,139,6.9,11,84,0,,,0.04,107.00,meteobridge,2019-11-14 13:50:24,
2019-11-14 14:55:36,45.7,41.2,29.52,South,174,6,9,84,0,,,0.04,93.00,meteobridge,2019-11-14 13:55:36,
2019-11-14 15:00:54,45.3,40.8,29.52,SSE,153,6.9,11,84,0,,,0.04,76.00,meteobridge,2019-11-14 14:00:54,
2019-11-14 15:05:06,45.1,40.6,29.52,SE,131,6.9,11,84,0,,,0.04,62.00,meteobridge,2019-11-14 14:05:06,
2019-11-14 15:10:18,45,40.5,29.53,SE,133,8.9,9,84,0,,,0.04,62.00,meteobridge,2019-11-14 14:10:18,
2019-11-14 15:15:36,44.8,40.5,29.53,SE,146,8.1,10,85,0,,,0.04,67.00,meteobridge,2019-11-14 14:15:36,
2019-11-14 15:20:48,44.4,40.3,29.53,SSE,149,6,8,85,0,,,0.04,62.00,meteobridge,2019-11-14 14:20:48,
2019-11-14 15:25:00,44.4,40.3,29.53,SE,144,8.1,11,85,0,,,0.04,60.00,meteobridge,2019-11-14 14:25:00,
2019-11-14 15:30:18,44.4,40.5,29.53,SE,136,4.9,11,86,0,,,0.04,114.00,meteobridge,2019-11-14 14:30:18,
2019-11-14 15:35:30,44.4,40.5,29.53,South,182,4.9,9,86,0,,,0.04,155.00,meteobridge,2019-11-14 14:35:30,
2019-11-14 15:40:48,44.8,40.8,29.54,SSE,148,2,10,86,0,,,0.04,84.00,meteobridge,2019-11-14 14:40:48,
2019-11-14 15:45:00,44.8,40.5,29.54,SSE,160,6,12,85,0,,,0.04,72.00,meteobridge,2019-11-14 14:45:00,
2019-11-14 15:50:12,44.8,40.5,29.54,SSE,151,6,12,85,0,,,0.04,63.00,meteobridge,2019-11-14 14:50:12,
2019-11-14 15:55:30,44.4,40.3,29.54,SSE,157,6.9,10,85,0,,,0.04,53.00,meteobridge,2019-11-14 14:55:30,
2019-11-14 16:00:42,44.4,40.3,29.54,SSE,150,4.9,10,85,0,,,0.04,47.00,meteobridge,2019-11-14 15:00:42,
2019-11-14 16:06:00,44.2,40.1,29.55,SSE,148,10.1,10,85,0,,,0.04,33.00,meteobridge,2019-11-14 15:06:00,
2019-11-14 16:10:12,44.1,39.9,29.54,SSE,153,8.1,9,85,0,,,0.04,30.00,meteobridge,2019-11-14 15:10:12,
2019-11-14 16:15:24,44.1,40.1,29.54,SSE,156,6,9,86,0,,,0.04,25.00,meteobridge,2019-11-14 15:15:24,
2019-11-14 16:20:42,43.9,39.9,29.54,SE,141,4.9,8,86,0,,,0.04,21.00,meteobridge,2019-11-14 15:20:42,
2019-11-14 16:25:54,43.7,39.7,29.54,SE,140,4.9,7,86,0,,,0.04,16.00,meteobridge,2019-11-14 15:25:54,
2019-11-14 16:30:06,43.5,39.6,29.54,South,186,4.9,11,86,0,,,0.04,16.00,meteobridge,2019-11-14 15:30:06,
2019-11-14 16:35:24,43.3,39.4,29.54,SSE,152,4.9,8,86,0,,,0.04,11.00,meteobridge,2019-11-14 15:35:24,
2019-11-14 16:40:36,43.3,39.4,29.54,SE,144,4,6,86,0,,,0.04,9.00,meteobridge,2019-11-14 15:40:36,
2019-11-14 16:45:54,43.2,39.2,29.54,SE,135,8.1,9,86,0,,,0.04,7.00,meteobridge,2019-11-14 15:45:54,
2019-11-14 16:50:06,43.2,39.2,29.54,SE,143,4,7,86,0,,,0.04,5.00,meteobridge,2019-11-14 15:50:06,
2019-11-14 16:55:18,43,39,29.55,SE,138,2.9,5,86,0,,,0.04,0.00,meteobridge,2019-11-14 15:55:18,
2019-11-14 17:00:36,43,39.4,29.55,SSE,161,2,5,87,0,,,0.04,0.00,meteobridge,2019-11-14 16:00:36,
2019-11-14 17:05:38,42.6,39,29.55,SSE,160,4,4,87,0,,,0.04,0.00,meteobridge,2019-11-14 16:05:38,
2019-11-14 17:10:44,42.4,38.8,29.55,SSE,155,2,7,87,0,,,0.04,0.00,meteobridge,2019-11-14 16:10:44,
2019-11-14 17:16:02,42.3,38.7,29.56,SSE,148,2.9,4,87,0,,,0.04,0.00,meteobridge,2019-11-14 16:16:02,
2019-11-14 17:20:14,42.3,38.7,29.55,SE,139,4,6,87,0,,,0.04,0.00,meteobridge,2019-11-14 16:20:14,
2019-11-14 17:25:26,42.3,38.7,29.56,SSE,147,2.9,4,87,0,,,0.04,0.00,meteobridge,2019-11-14 16:25:26,
2019-11-14 17:30:44,42.1,38.8,29.56,SSE,147,2,4,88,0,,,0.04,0.00,meteobridge,2019-11-14 16:30:44,
2019-11-14 17:35:56,41.7,38.5,29.56,SE,146,2,4,88,0,,,0.04,0.00,meteobridge,2019-11-14 16:35:56,
2019-11-14 17:40:08,41.5,38.3,29.57,SE,132,2.9,5,88,0,,,0.04,0.00,meteobridge,2019-11-14 16:40:08,
2019-11-14 17:45:26,41.5,38.3,29.57,SE,134,2.9,4,88,0,,,0.04,0.00,meteobridge,2019-11-14 16:45:26,
2019-11-14 17:50:38,41.4,38.3,29.57,SSE,161,4.9,5,89,0,,,0.04,0.00,meteobridge,2019-11-14 16:50:38,
2019-11-14 17:55:56,41.4,38.3,29.57,SSE,158,0.9,4,89,0,,,0.04,0.00,meteobridge,2019-11-14 16:55:56,
2019-11-14 18:00:08,41.2,38.1,29.58,SE,144,2.9,4,89,0,,,0.04,0.00,meteobridge,2019-11-14 17:00:08,
2019-11-14 18:05:20,41,37.9,29.58,SE,136,2.9,5,89,0,,,0.04,0.00,meteobridge,2019-11-14 17:05:20,
2019-11-14 18:10:38,41,38.3,29.58,SE,130,2.9,6,90,0,,,0.04,0.00,meteobridge,2019-11-14 17:10:38,
2019-11-14 18:15:50,41.2,38.5,29.58,ESE,123,2,6,90,0,,,0.04,0.00,meteobridge,2019-11-14 17:15:50,
2019-11-14 18:20:02,41.2,38.1,29.57,ESE,112,2.9,6,89,0,,,0.04,0.00,meteobridge,2019-11-14 17:20:02,
2019-11-14 18:25:20,41,38.3,29.57,ESE,119,2.9,3,90,0,,,0.04,0.00,meteobridge,2019-11-14 17:25:20,
2019-11-14 18:30:32,40.8,38.1,29.57,ESE,105,2,4,90,0,,,0.04,0.00,meteobridge,2019-11-14 17:30:32,
2019-11-14 18:35:50,40.8,38.1,29.57,ESE,105,0,1,90,0,,,0.04,0.00,meteobridge,2019-11-14 17:35:50,
2019-11-14 18:40:02,40.8,37.8,29.57,ESE,107,0.9,3,89,0,,,0.04,0.00,meteobridge,2019-11-14 17:40:02,
2019-11-14 18:45:14,40.6,37.9,29.57,ESE,107,2,3,90,0,,,0.04,0.00,meteobridge,2019-11-14 17:45:14,
2019-11-14 18:50:32,40.6,37.9,29.57,ESE,111,2,3,90,0,,,0.04,0.00,meteobridge,2019-11-14 17:50:32,
2019-11-14 18:55:44,40.6,37.9,29.58,ESE,103,0.9,3,90,0,,,0.04,0.00,meteobridge,2019-11-14 17:55:44,
2019-11-14 19:01:02,40.5,37.8,29.58,East,101,0.9,2,90,0,,,0.04,0.00,meteobridge,2019-11-14 18:01:02,
2019-11-14 19:05:14,40.5,38.1,29.58,East,90,2.9,4,91,0,,,0.04,0.00,meteobridge,2019-11-14 18:05:14,
2019-11-14 19:10:14,40.5,38.1,29.59,East,89,2,3,91,0,,,0.04,0.00,meteobridge,2019-11-14 18:10:14,
2019-11-14 19:15:24,40.5,38.1,29.59,SE,126,2.9,3,91,0,,,0.04,0.00,meteobridge,2019-11-14 18:15:24,
2019-11-14 19:20:42,40.5,38.1,29.60,SE,144,2,6,91,0,,,0.04,0.00,meteobridge,2019-11-14 18:20:42,
2019-11-14 19:25:54,40.5,38.1,29.60,SSE,155,0.9,3,91,0,,,0.04,0.00,meteobridge,2019-11-14 18:25:54,
2019-11-14 19:30:06,40.5,38.1,29.60,SSE,155,0.9,2,91,0,,,0.04,0.00,meteobridge,2019-11-14 18:30:06,
2019-11-14 19:35:24,40.3,37.9,29.60,SSE,152,0.9,3,91,0,,,0.04,0.00,meteobridge,2019-11-14 18:35:24,
2019-11-14 19:40:36,40.3,37.9,29.60,ESE,115,0.9,3,91,0,,,0.04,0.00,meteobridge,2019-11-14 18:40:36,
2019-11-14 19:45:54,40.5,38.3,29.60,ESE,115,0.9,2,92,0,,,0.04,0.00,meteobridge,2019-11-14 18:45:54,
2019-11-14 19:50:06,40.5,38.3,29.60,ESE,115,0.9,2,92,0,,,0.04,0.00,meteobridge,2019-11-14 18:50:06,
2019-11-14 19:55:18,40.5,38.3,29.60,ESE,111,2.9,3,92,0,,,0.04,0.00,meteobridge,2019-11-14 18:55:18,
2019-11-14 20:00:38,40.5,38.3,29.60,East,86,2,4,92,0,,,0.04,0.00,meteobridge,2019-11-14 19:00:38,
2019-11-14 20:05:50,40.5,38.3,29.60,East,85,2,3,92,0,,,0.04,0.00,meteobridge,2019-11-14 19:05:50,
2019-11-14 20:10:02,40.6,38.5,29.61,East,86,2,3,92,0,,,0.04,0.00,meteobridge,2019-11-14 19:10:02,
2019-11-14 20:15:22,40.6,38.5,29.61,East,96,2,3,92,0,,,0.04,0.00,meteobridge,2019-11-14 19:15:22,
2019-11-14 20:20:34,40.6,38.3,29.61,ESE,105,2,4,91,0,,,0.04,0.00,meteobridge,2019-11-14 19:20:34,
2019-11-14 20:25:52,40.6,38.5,29.61,East,96,0.9,6,92,0,,,0.04,0.00,meteobridge,2019-11-14 19:25:52,
2019-11-14 20:30:04,40.8,38.5,29.61,East,93,2,4,91,0,,,0.04,0.00,meteobridge,2019-11-14 19:30:04,
2019-11-14 20:35:16,40.8,38.5,29.61,East,97,2,3,91,0,,,0.04,0.00,meteobridge,2019-11-14 19:35:16,
2019-11-14 20:40:35,40.8,38.5,29.61,ESE,105,2.9,3,91,0,,,0.04,0.00,meteobridge,2019-11-14 19:40:35,
2019-11-14 20:45:48,40.8,38.5,29.61,East,95,0.9,4,91,0,,,0.04,0.00,meteobridge,2019-11-14 19:45:48,
2019-11-14 20:50:01,40.8,38.5,29.61,East,92,2,3,91,0,,,0.04,0.00,meteobridge,2019-11-14 19:50:01,
2019-11-14 20:55:18,40.8,38.5,29.60,East,89,0.9,3,91,0,,,0.04,0.00,meteobridge,2019-11-14 19:55:18,
2019-11-14 21:00:30,40.8,38.5,29.60,East,89,0,2,91,0,,,0.04,0.00,meteobridge,2019-11-14 20:00:30,
2019-11-14 21:05:48,40.6,38.3,29.59,East,89,0.9,2,91,0,,,0.04,0.00,meteobridge,2019-11-14 20:05:48,
2019-11-14 21:10:02,40.6,38.3,29.59,ENE,63,0.9,2,91,0,,,0.04,0.00,meteobridge,2019-11-14 20:10:02,
2019-11-14 21:15:14,40.6,38.5,29.59,ENE,74,0.9,3,92,0,,,0.04,0.00,meteobridge,2019-11-14 20:15:14,
2019-11-14 21:20:34,40.6,38.5,29.60,East,79,2,4,92,0,,,0.04,0.00,meteobridge,2019-11-14 20:20:34,
2019-11-14 21:25:46,40.6,38.5,29.60,East,81,0.9,4,92,0,,,0.04,0.00,meteobridge,2019-11-14 20:25:46,
2019-11-14 21:31:04,40.6,38.5,29.60,East,86,2.9,3,92,0,,,0.04,0.00,meteobridge,2019-11-14 20:31:04,
2019-11-14 21:35:18,40.6,38.5,29.60,East,80,0.9,4,92,0,,,0.04,0.00,meteobridge,2019-11-14 20:35:18,
2019-11-14 21:40:30,40.6,38.5,29.60,East,83,0.9,4,92,0,,,0.04,0.00,meteobridge,2019-11-14 20:40:30,
2019-11-14 21:45:42,40.6,38.5,29.60,East,83,0.9,2,92,0,,,0.04,0.00,meteobridge,2019-11-14 20:45:42,
2019-11-14 21:50:44,40.6,38.5,29.60,East,83,0,2,92,0,,,0.04,0.00,meteobridge,2019-11-14 20:50:44,
2019-11-14 21:55:56,40.5,38.3,29.60,East,83,0,1,92,0,,,0.04,0.00,meteobridge,2019-11-14 20:55:56,
2019-11-14 22:00:08,40.5,38.3,29.59,East,83,0,1,92,0,,,0.04,0.00,meteobridge,2019-11-14 21:00:08,
2019-11-14 22:05:26,40.5,38.3,29.60,East,83,0.9,1,92,0,,,0.04,0.00,meteobridge,2019-11-14 21:05:26,
2019-11-14 22:10:38,40.5,38.3,29.59,East,83,0.9,2,92,0,,,0.04,0.00,meteobridge,2019-11-14 21:10:38,
2019-11-14 22:15:46,40.3,38.1,29.59,NE,52,2,2,92,0,,,0.04,0.00,meteobridge,2019-11-14 21:15:46,
2019-11-14 22:20:52,40.3,38.1,29.61,NE,52,0,0,92,0,,,0.04,0.00,meteobridge,2019-11-14 21:20:52,
2019-11-14 22:25:04,40.3,38.1,29.61,NE,52,0,0,92,0,,,0.04,0.00,meteobridge,2019-11-14 21:25:04,
2019-11-14 22:30:16,40.1,37.9,29.61,NE,52,0,1,92,0,,,0.04,0.00,meteobridge,2019-11-14 21:30:16,
2019-11-14 22:35:34,40.1,37.9,29.61,NE,52,0,0,92,0,,,0.04,0.00,meteobridge,2019-11-14 21:35:34,
2019-11-14 22:40:46,39.9,37.8,29.61,NE,52,0,0,92,0,,,0.04,0.00,meteobridge,2019-11-14 21:40:46,
2019-11-14 22:46:04,39.9,38.1,29.61,NE,52,0,1,93,0,,,0.04,0.00,meteobridge,2019-11-14 21:46:04,
2019-11-14 22:50:16,39.7,37.9,29.61,NE,52,0,2,93,0,,,0.04,0.00,meteobridge,2019-11-14 21:50:16,
2019-11-14 22:55:28,39.7,37.9,29.60,NE,52,0,1,93,0,,,0.04,0.00,meteobridge,2019-11-14 21:55:28,
2019-11-14 23:00:46,39.7,37.9,29.61,NE,52,0,0,93,0,,,0.04,0.00,meteobridge,2019-11-14 22:00:46,
2019-11-14 23:05:58,39.7,37.9,29.61,NE,52,0,1,93,0,,,0.04,0.00,meteobridge,2019-11-14 22:05:58,
2019-11-14 23:10:04,39.7,37.9,29.60,NE,52,0,1,93,0,,,0.04,0.00,meteobridge,2019-11-14 22:10:04,
2019-11-14 23:15:11,39.7,37.9,29.61,NE,52,0,0,93,0,,,0.04,0.00,meteobridge,2019-11-14 22:15:11,
2019-11-14 23:20:24,39.7,37.9,29.61,NE,52,0.9,2,93,0,,,0.04,0.00,meteobridge,2019-11-14 22:20:24,
2019-11-14 23:25:36,39.7,37.9,29.61,NE,52,0.9,1,93,0,,,0.04,0.00,meteobridge,2019-11-14 22:25:36,
2019-11-14 23:30:54,39.7,38.1,29.61,NE,52,0,1,94,0,,,0.04,0.00,meteobridge,2019-11-14 22:30:54,
2019-11-14 23:35:06,39.7,38.1,29.61,NE,52,0,0,94,0,,,0.04,0.00,meteobridge,2019-11-14 22:35:06,
2019-11-14 23:40:08,39.7,38.1,29.61,NE,52,0,0,94,0,,,0.04,0.00,meteobridge,2019-11-14 22:40:08,
2019-11-14 23:45:15,39.9,38.3,29.61,NE,52,2,2,94,0,,,0.04,0.00,meteobridge,2019-11-14 22:45:15,
2019-11-14 23:50:32,39.9,38.3,29.61,NE,52,0,1,94,0,,,0.04,0.00,meteobridge,2019-11-14 22:50:32,
2019-11-14 23:55:44,40.1,38.5,29.61,NE,52,0.9,2,94,0,,,0.04,0.00,meteobridge,2019-11-14 22:55:44,